| time (UTC) | temp F | wind direction | speed knots | gust knots | rain 1hr in | rain 24hr in | rain mn in | humidity % | barometer mb |
| 20260905184604 | 94 | 304 | 9.6 | 17.4 | 0.00 | 0.00 | 0.00 | 58 | 1013.5 |
| 20260905183109 | 94 | 151 | 4.3 | 9.6 | 0.00 | 0.00 | 0.00 | 59 | 1013.9 |
| 20260905181558 | 93 | 149 | 4.3 | 8.7 | 0.00 | 0.00 | 0.00 | 61 | 1013.9 |
| 20260905174555 | 91 | 151 | 5.2 | 9.6 | 0.00 | 0.00 | 0.00 | 63 | 1014.2 |
| 20260905173057 | 90 | 156 | 0.9 | 7.8 | 0.00 | 0.00 | 0.00 | 66 | 1014.4 |
| 20260905171554 | 89 | 113 | 4.3 | 8.7 | 0.00 | 0.00 | 0.00 | 65 | 1014.6 |
| 20260905164558 | 88 | 146 | 7.0 | 10.4 | 0.00 | 0.00 | 0.00 | 67 | 1015.1 |
| 20260905163108 | 87 | 123 | 7.0 | 10.4 | 0.00 | 0.00 | 0.00 | 69 | 1015.1 |
| 20260905161600 | 87 | 176 | 6.1 | 10.4 | 0.00 | 0.00 | 0.00 | 70 | 1015.0 |
| 20260905160100 | 86 | 163 | 8.7 | 12.2 | 0.00 | 0.00 | 0.00 | 71 | 1015.3 |
| 20260905154554 | 85 | 94 | 7.8 | 12.2 | 0.00 | 0.00 | 0.00 | 71 | 1015.5 |
| 20260905153111 | 85 | 138 | 8.7 | 11.3 | 0.00 | 0.00 | 0.00 | 72 | 1015.3 |
| 20260905151608 | 84 | 71 | 9.6 | 13.9 | 0.00 | 0.00 | 0.00 | 75 | 1015.6 |
| 20260905150058 | 84 | 98 | 9.6 | 13.9 | 0.00 | 0.00 | 0.00 | 77 | 1015.4 |
| 20260905144554 | 83 | 107 | 7.0 | 12.2 | 0.00 | 0.00 | 0.00 | 78 | 1015.3 |
| 20260905143105 | 83 | 104 | 10.4 | 16.5 | 0.00 | 0.00 | 0.00 | 79 | 1015.4 |
| 20260905141621 | 83 | 94 | 12.2 | 17.4 | 0.00 | 0.00 | 0.00 | 78 | 1015.2 |
| 20260905140106 | 83 | 80 | 7.8 | 13.0 | 0.00 | 0.00 | 0.00 | 78 | 1015.4 |
| 20260905134552 | 81 | 100 | 2.6 | 9.6 | 0.00 | 0.00 | 0.00 | 82 | 1015.5 |
| 20260905133059 | 80 | 80 | 7.8 | 13.0 | 0.00 | 0.00 | 0.00 | 84 | 1015.5 |
| 20260905131616 | 80 | 151 | 0.9 | 2.6 | 0.00 | 0.00 | 0.00 | 89 | 1014.9 |
| 20260905130057 | 78 | 49 | 0.9 | 2.6 | 0.00 | 0.00 | 0.00 | 93 | 1015.1 |
| 20260905124550 | 77 | 67 | 0.9 | 3.5 | 0.00 | 0.00 | 0.00 | 94 | 1014.9 |
| 20260905123106 | 76 | 0 | 0.0 | 1.7 | 0.00 | 0.00 | 0.00 | 95 | 1015.0 |
| 20260905121555 | 75 | 165 | 0.9 | 1.7 | 0.00 | 0.00 | 0.00 | 96 | 1014.7 |
| 20260905120105 | 74 | 0 | 0.0 | 2.6 | 0.00 | 0.00 | 0.00 | 96 | 1014.9 |
| 20260905114558 | 73 | 10 | 0.9 | 1.7 | 0.00 | 0.00 | 0.00 | 96 | 1014.6 |
| 20260905113054 | 73 | 0 | 0.0 | 1.7 | 0.00 | 0.00 | 0.00 | 95 | 1014.5 |
| 20260905111550 | 74 | 0 | 0.0 | 1.7 | 0.00 | 0.00 | 0.00 | 96 | 1014.5 |
| 20260905110106 | 74 | 15 | 0.9 | 2.6 | 0.00 | 0.00 | 0.00 | 95 | 1014.2 |
| 20260905104558 | 74 | 134 | 0.9 | 2.6 | 0.00 | 0.00 | 0.00 | 95 | 1014.1 |
| 20260905103053 | 74 | 0 | 0.0 | 1.7 | 0.00 | 0.00 | 0.00 | 95 | 1014.3 |
| 20260905101553 | 74 | 185 | 0.9 | 2.6 | 0.00 | 0.00 | 0.00 | 95 | 1014.5 |
| 20260905100121 | 74 | 185 | 1.7 | 2.6 | 0.00 | 0.00 | 0.00 | 95 | 1014.4 |
| 20260905094552 | 75 | 133 | 0.9 | 1.7 | 0.00 | 0.00 | 0.00 | 95 | 1014.3 |
| 20260905093054 | 75 | 85 | 0.9 | 1.7 | 0.00 | 0.00 | 0.00 | 95 | 1014.3 |
| 20260905091601 | 75 | 107 | 0.0 | 1.7 | 0.00 | 0.00 | 0.00 | 94 | 1014.4 |
| 20260905090135 | 75 | 0 | 0.0 | 0.0 | 0.00 | 0.00 | 0.00 | 93 | 1014.2 |
| 20260905084554 | 76 | 0 | 0.0 | 0.0 | 0.00 | 0.00 | 0.00 | 92 | 1014.0 |
| 20260905083054 | 76 | 0 | 0.0 | 0.0 | 0.00 | 0.00 | 0.00 | 93 | 1013.9 |
| 20260905081605 | 76 | 0 | 0.0 | 0.9 | 0.00 | 0.00 | 0.00 | 93 | 1013.8 |
| 20260905080056 | 76 | 192 | 2.6 | 3.5 | 0.00 | 0.00 | 0.00 | 93 | 1013.6 |
| 20260905074607 | 76 | 192 | 1.7 | 3.5 | 0.00 | 0.00 | 0.00 | 94 | 1013.5 |
| 20260905073100 | 76 | 103 | 0.9 | 1.7 | 0.00 | 0.00 | 0.00 | 94 | 1013.8 |
| 20260905071555 | 76 | 0 | 0.0 | 1.7 | 0.00 | 0.00 | 0.00 | 94 | 1014.1 |
| 20260905070059 | 76 | 0 | 0.0 | 0.0 | 0.00 | 0.00 | 0.00 | 93 | 1014.2 |
| 20260905064553 | 77 | 0 | 0.0 | 0.0 | 0.00 | 0.00 | 0.00 | 93 | 1014.3 |
| 20260905063058 | 77 | 0 | 0.0 | 0.9 | 0.00 | 0.00 | 0.00 | 93 | 1014.3 |
| 20260905061557 | 77 | 0 | 0.0 | 0.0 | 0.00 | 0.00 | 0.00 | 93 | 1014.3 |
| 20260905060055 | 78 | 0 | 0.0 | 1.7 | 0.00 | 0.00 | 0.00 | 93 | 1014.3 |
| 20260905054603 | 77 | 103 | 0.9 | 2.6 | 0.00 | 0.00 | 0.00 | 93 | 1014.4 |
| 20260905053102 | 77 | 0 | 0.0 | 0.0 | 0.00 | 0.00 | 0.00 | 92 | 1014.6 |
| 20260905051611 | 77 | 0 | 0.0 | 0.0 | 0.00 | 0.00 | 0.00 | 92 | 1014.8 |
| 20260905050107 | 77 | 0 | 0.0 | 0.0 | 0.00 | 0.00 | 0.00 | 91 | 1014.9 |
| 20260905044603 | 77 | 0 | 0.0 | 0.0 | 0.00 | 0.00 | 0.00 | 91 | 1014.9 |
| 20260905043059 | 77 | 0 | 0.0 | 1.7 | 0.00 | 0.00 | 0.00 | 91 | 1014.9 |
| 20260905041557 | 77 | 0 | 0.0 | 0.0 | 0.00 | 0.00 | 0.00 | 90 | 1014.7 |
| 20260905040105 | 77 | 352 | 0.0 | 1.7 | 0.00 | 0.00 | 0.00 | 90 | 1014.9 |
| 20260905034557 | 78 | 0 | 0.0 | 1.7 | 0.00 | 0.00 | 0.00 | 91 | 1014.9 |
| 20260905033110 | 78 | 360 | 0.9 | 2.6 | 0.00 | 0.00 | 0.00 | 91 | 1015.0 |
| 20260905031622 | 79 | 0 | 0.0 | 0.9 | 0.00 | 0.00 | 0.00 | 90 | 1014.9 |
| 20260905030058 | 79 | 171 | 0.9 | 3.5 | 0.00 | 0.00 | 0.00 | 91 | 1014.6 |
| 20260905024602 | 80 | 0 | 0.0 | 0.0 | 0.00 | 0.00 | 0.00 | 89 | 1014.9 |
| 20260905023053 | 81 | 0 | 0.0 | 0.0 | 0.00 | 0.00 | 0.00 | 88 | 1014.9 |
| 20260905021553 | 81 | 0 | 0.0 | 0.0 | 0.00 | 0.00 | 0.00 | 84 | 1014.9 |
| 20260905020100 | 82 | 0 | 0.0 | 0.0 | 0.00 | 0.00 | 0.00 | 83 | 1014.7 |
| 20260905014554 | 82 | 0 | 0.0 | 0.0 | 0.00 | 0.00 | 0.00 | 82 | 1014.7 |
| 20260905013058 | 82 | 171 | 0.9 | 3.5 | 0.00 | 0.00 | 0.00 | 82 | 1014.4 |
| 20260905011556 | 83 | 0 | 0.0 | 1.7 | 0.00 | 0.00 | 0.00 | 81 | 1014.3 |
| 20260905010105 | 85 | 123 | 0.9 | 1.7 | 0.00 | 0.00 | 0.00 | 81 | 1014.3 |
| 20260905004554 | 86 | 113 | 0.9 | 1.7 | 0.00 | 0.00 | 0.00 | 78 | 1014.4 |
| 20260905003058 | 88 | 140 | 0.9 | 1.7 | 0.00 | 0.00 | 0.00 | 73 | 1014.2 |
| 20260905001557 | 90 | 0 | 0.0 | 0.0 | 0.00 | 0.00 | 0.00 | 69 | 1014.2 |
| 20260904234553 | 94 | 0 | 0.0 | 0.0 | 0.00 | 0.00 | 0.00 | 55 | 1014.2 |
| 20260904233100 | 94 | 164 | 0.9 | 3.5 | 0.00 | 0.00 | 0.00 | 59 | 1014.2 |
| 20260904231559 | 99 | 177 | 0.0 | 2.6 | 0.00 | 0.00 | 0.00 | 53 | 1014.2 |
| 20260904230107 | 99 | 0 | 0.0 | 3.5 | 0.00 | 0.00 | 0.00 | 47 | 1014.3 |
| 20260904224553 | 99 | 325 | 0.9 | 4.3 | 0.00 | 0.00 | 0.00 | 47 | 1014.2 |
| 20260904223106 | 97 | 0 | 0.0 | 3.5 | 0.00 | 0.00 | 0.00 | 50 | 1014.2 |
| 20260904221557 | 97 | 221 | 0.9 | 4.3 | 0.00 | 0.00 | 0.00 | 49 | 1014.2 |
| 20260904220117 | 98 | 178 | 1.7 | 4.3 | 0.00 | 0.00 | 0.00 | 49 | 1014.2 |
| 20260904214600 | 99 | 236 | 1.7 | 6.1 | 0.00 | 0.00 | 0.00 | 45 | 1014.5 |
| 20260904213056 | 98 | 248 | 4.3 | 7.8 | 0.00 | 0.00 | 0.00 | 46 | 1014.5 |
| 20260904211553 | 99 | 277 | 2.6 | 7.0 | 0.00 | 0.00 | 0.00 | 46 | 1014.6 |
| 20260904210104 | 99 | 321 | 2.6 | 7.0 | 0.00 | 0.00 | 0.00 | 47 | 1014.7 |
| 20260904204556 | 99 | 123 | 0.9 | 7.8 | 0.00 | 0.00 | 0.00 | 48 | 1014.7 |
| 20260904203057 | 98 | 0 | 1.7 | 6.1 | 0.00 | 0.00 | 0.00 | 47 | 1015.0 |
| 20260904201555 | 99 | 268 | 4.3 | 7.8 | 0.00 | 0.00 | 0.00 | 46 | 1015.3 |
| 20260904200100 | 98 | 0 | 0.9 | 12.2 | 0.00 | 0.00 | 0.00 | 48 | 1015.4 |
| 20260904194557 | 99 | 298 | 6.1 | 9.6 | 0.00 | 0.00 | 0.00 | 45 | 1015.5 |
| 20260904193055 | 99 | 320 | 1.7 | 10.4 | 0.00 | 0.00 | 0.00 | 44 | 1015.7 |
| 20260904191554 | 100 | 0 | 2.6 | 8.7 | 0.00 | 0.00 | 0.00 | 45 | 1016.1 |